Home   Weather   Nijmegen   Past weeks

Flag for Netherlands Past Weather in Nijmegen, Netherlands — Yesterday and Last 2 Weeks

Now
32 °F

Ice fog.


Feels Like: 32 °F
Forecast: 23 / 32 °F
Wind: 2 mph from West

Location: Volkel

Current Time: Jan 25, 2017 at 2:37:40 am

Latest Report: Jan 25, 2017 at 1:55 am


Visibility: 1 mi

Pressure: 30.42 "Hg

Humidity: 87%

Dew Point: 28 °F

Location of NijmegenLocation

Past Weather in Nijmegen — Graph

°F

Nijmegen Temperature Yesterday

Maximum temperature yesterday: 36 °F (at 12:55 pm)
Minimum temperature yesterday: 32 °F (at 12:25 am)
Average temperature yesterday: 33 °F

High & Low Weather Summary for the Past Weeks

 TemperatureHumidityPressure
High50 °F (Jan 11, 2:25 pm)100% (Jan 10, 6:25 am)30.72 "Hg (Jan 10, 6:25 am)
Low18 °F (Jan 22, 7:32 am)48% (Jan 20, 12:25 pm)28.97 "Hg (Jan 13, 12:25 am)
Average32 °F88%30.18 "Hg
* Reported Jan 10 1:25 am — Jan 25 1:25 am, Nijmegen, Weather by CustomWeather, © 2017

Note: Actual official high and low records may vary slightly from our data, if they occured in-between our weather recording intervals... More about our weather records

Advertising

Nijmegen Weather History for the Previous 24 Hours

Scroll right to see more
 ConditionsComfort  
Time TempWeatherWind HumidityBarometerVisibility
1:25 am
Wed, Jan 25
32 °FIce fog.1 mph93%30.42 "Hg1 mi
12:55 am32 °FIce fog.1 mph93%30.45 "Hg1 mi
12:25 am32 °FIce fog.3 mph93%30.45 "Hg1 mi
11:55 pm
Tue, Jan 24
32 °FIce fog.5 mph93%30.45 "Hg1 mi
11:25 pm32 °FIce fog.5 mph93%30.45 "Hg2 mi
10:55 pm32 °FIce fog.5 mph93%30.45 "Hg2 mi
10:27 pm32 °FIce fog.5 mph93%30.42 "Hg2 mi
10:10 pm32 °FIce fog.5 mph93%30.42 "Hg2 mi
9:55 pm32 °FIce fog.6 mph93%30.45 "Hg2 mi
9:25 pm32 °FIce fog.2 mph93%30.42 "Hg1 mi
8:55 pm32 °FIce fog.3 mph93%30.45 "Hg1 mi
8:25 pm32 °FIce fog.5 mph93%30.42 "Hg1 mi
8:17 pm32 °FIce fog.3 mph100%30.42 "Hg2 mi
7:55 pm32 °FIce fog.2 mph100%30.42 "Hg2 mi
7:25 pm34 °FFog.3 mph93%30.42 "Hg2 mi
6:56 pm34 °FFog.5 mph93%30.42 "Hg2 mi
6:55 pm34 °FFog.5 mph93%30.42 "Hg2 mi
6:25 pm34 °FFog.2 mph93%30.42 "Hg2 mi
5:55 pm34 °FFog.3 mph93%30.42 "Hg2 mi
5:32 pm34 °FFog.2 mph100%30.39 "Hg1 mi
4:55 pm34 °FFog.2 mph100%30.39 "Hg1 mi
4:32 pm36 °FFog.1 mph93%30.39 "Hg1 mi
3:55 pm36 °FFog.2 mph93%30.39 "Hg1 mi
3:25 pm36 °FFog.2 mph93%30.39 "Hg1 mi
2:55 pm36 °FFog.2 mph93%30.39 "Hg1 mi
2:25 pm36 °FFog.3 mph93%30.36 "Hg1 mi
2:01 pm36 °FFog.2 mph93%30.39 "Hg1 mi
1:25 pm36 °FFog.3 mph93%30.36 "Hg1 mi
1:17 pm36 °FFog.2 mph93%30.39 "Hg1 mi
1:00 pm36 °FFog.2 mph93%30.39 "Hg1 mi
12:55 pm36 °FFog.2 mph93%30.39 "Hg1 mi
12:29 pm34 °FFog.3 mph100%30.39 "Hg1 mi
12:14 pm34 °FFog.3 mph100%30.39 "Hg1 mi
11:55 am34 °FFog.2 mph100%30.39 "Hg0 mi
11:25 am34 °FFog.5 mph100%30.39 "Hg1 mi
11:11 am34 °FFog.5 mph100%30.36 "Hg1 mi
10:55 am34 °FFog.3 mph100%30.36 "Hg1 mi
10:25 am34 °FFog.5 mph100%30.36 "Hg1 mi
9:55 am34 °FFog.5 mph100%30.36 "Hg1 mi
9:25 am34 °FFog.3 mph93%30.33 "Hg1 mi
9:04 am34 °FFog.2 mph93%30.33 "Hg1 mi
8:55 am34 °FFog.3 mph93%30.33 "Hg1 mi
8:40 am34 °FFog.2 mph93%30.33 "Hg1 mi
8:25 am32 °FIce fog.3 mph100%30.33 "Hg1 mi
8:09 am32 °FIce fog.2 mph100%30.33 "Hg1 mi
7:55 am32 °FIce fog.2 mph100%30.30 "Hg1 mi
7:32 am32 °FIce fog.5 mph100%30.30 "Hg1 mi
7:25 am32 °FIce fog.5 mph100%30.30 "Hg1 mi
6:55 am32 °FFog.6 mph100%30.30 "Hg0 mi
6:25 am32 °FFog.7 mph100%30.30 "Hg0 mi
5:55 am34 °FLight snow. Low clouds.3 mph93%30.30 "Hg0 mi
5:25 am34 °FFog.3 mph100%30.30 "Hg0 mi
4:55 am34 °FDrizzle. Low clouds.5 mph100%30.30 "Hg0 mi
4:25 am34 °FDrizzle. Low clouds.5 mph100%30.30 "Hg0 mi
3:55 am34 °FFog.3 mph100%30.30 "Hg0 mi
3:25 am34 °FFog.3 mph100%30.30 "Hg0 mi
2:55 am34 °FFog.3 mph100%30.30 "Hg0 mi
2:25 am34 °FFog.6 mph100%30.30 "Hg0 mi
Weather by CustomWeather, © 2017

See weather overviewHow to use our weather pages